Location: Darmstadt
(49.8706°N, 8.6494°E)
Time: 07:29:00
(UTC+01:00)

CZ-2C R/B - Pass Details

Date: 31 October 2020
Orbit: 703 x 909 km, 98.1° (Epoch: 03 December)

Event Time Altitude Azimuth Distance (km) Brightness Sun altitude
Rises 19:26:07 0° 178° (S) 3,512 6.3 -23.4°
Reaches altitude 10° 19:28:37 10° 182° (S) 2,563 5.7 -23.8°
Maximum altitude 19:34:15 56° 260° (W) 1,039 3.9 -24.7°
Drops below altitude 10° 19:39:41 10° 338° (NNW) 2,478 6.0 -25.5°
Sets 19:42:04 0° 343° (NNW) 3,387 6.7 -25.9°
